Total_Precipitation_Accumulation
2.06 2.09 1.62 1.01 0.81 0.68 0.64 0.67 0.60 0.52 0.48 0.66 0.71 0.67 0.69 0.66 0.65 0.68 0.70 0.75 0.89 1.09 1.24 1.45 1.68 2.07 2.32 2.64 2.99 3.12 3.41 3.64 3.84 4.06 4.11 3.88 3.61 3.40 3.23 3.19 3.10 2.90 2.75 2.68
1.98 1.59 0.90 0.72 0.73 0.75 0.78 0.83 0.66 0.56 0.50 0.64 0.67 0.63 0.68 0.74 0.74 0.67 0.65 0.69 0.77 0.96 1.10 1.26 1.51 1.87 2.08 2.28 2.52 2.74 2.99 3.28 3.50 3.62 3.70 3.81 3.82 3.59 3.30 3.22 3.22 3.16 3.05 2.90
1.42 0.95 0.66 0.77 0.87 0.95 0.87 0.82 0.69 0.66 0.61 0.70 0.72 0.74 0.67 0.71 0.73 0.73 0.71 0.71 0.77 0.93 1.00 1.12 1.32 1.70 1.91 2.02 2.22 2.43 2.68 2.87 3.01 3.38 3.70 3.80 4.04 3.97 3.53 3.15 2.98 3.09 3.18 3.17
1.17 0.70 0.72 0.90 0.86 0.91 0.96 0.62 0.63 0.71 0.96 1.07 0.83 1.03 0.76 0.69 0.69 0.75 0.79 0.81 0.87 0.94 1.01 1.10 1.19 1.42 1.65 1.74 1.94 2.20 2.50 2.74 2.81 3.11 3.39 3.41 3.37 3.46 3.25 3.03 2.98 3.09 3.15 3.21
1.25 0.80 0.82 0.98 0.75 0.76 0.80 0.58 0.71 0.83 1.04 1.16 0.81 0.97 0.86 0.65 0.76 0.81 0.83 0.89 0.96 0.92 0.95 1.09 1.16 1.24 1.42 1.54 1.65 1.91 2.28 2.59 2.74 2.85 3.06 3.26 3.26 3.26 3.34 3.28 3.16 3.06 3.00 3.06
0.92 0.81 0.91 0.85 0.63 0.72 0.81 0.93 1.07 1.14 1.54 1.64 0.76 0.83 0.92 0.81 0.87 0.82 0.78 0.85 0.94 0.89 0.94 1.01 1.05 1.11 1.29 1.39 1.41 1.62 1.91 2.33 2.70 2.83 2.88 2.99 3.04 2.99 3.09 3.24 3.21 3.13 2.99 2.91
1.12 0.92 0.84 0.84 1.02 1.03 1.27 1.90 2.45 2.36 2.22 1.27 0.48 0.68 0.97 0.85 0.78 0.80 0.78 0.78 0.85 0.89 0.92 0.96 1.01 1.11 1.19 1.29 1.32 1.42 1.58 1.92 2.35 2.60 2.65 2.70 2.79 2.81 2.78 2.94 3.12 3.12 2.98 2.80
1.23 1.08 0.77 0.87 1.20 1.30 1.25 1.66 1.98 1.64 1.07 0.61 0.43 0.68 0.90 0.77 0.68 0.65 0.61 0.62 0.71 0.79 0.83 0.87 0.89 0.96 1.00 1.06 1.17 1.29 1.38 1.55 1.82 2.10 2.29 2.43 2.54 2.60 2.51 2.51 2.77 2.92 2.82 2.72
1.09 0.87 0.52 0.63 0.78 0.98 1.24 1.33 1.19 1.50 1.06 0.74 0.58 0.62 0.65 0.52 0.52 0.54 0.52 0.53 0.62 0.66 0.69 0.72 0.74 0.79 0.81 0.85 0.96 1.09 1.15 1.23 1.42 1.68 1.93 2.15 2.27 2.40 2.43 2.35 2.43 2.71 2.75 2.61
1.11 1.13 0.62 0.65 0.92 1.05 1.13 1.12 1.38 2.11 1.74 1.04 0.60 0.54 0.67 0.58 0.55 0.58 0.56 0.52 0.54 0.56 0.60 0.64 0.66 0.71 0.76 0.79 0.76 0.81 0.96 1.11 1.23 1.35 1.63 1.85 2.02 2.14 2.25 2.31 2.31 2.38 2.48 2.49
0.97 1.36 0.93 0.88 1.16 1.13 1.15 1.40 1.60 1.74 1.48 1.31 0.89 0.75 0.71 0.62 0.59 0.61 0.59 0.54 0.53 0.55 0.60 0.62 0.63 0.67 0.75 0.79 0.73 0.70 0.81 0.96 1.08 1.14 1.33 1.52 1.68 1.87 2.00 2.10 2.13 2.15 2.20 2.30
0.95 1.54 1.21 0.79 0.68 0.74 0.97 1.15 1.43 1.97 1.56 1.20 1.03 0.84 0.62 0.54 0.53 0.56 0.59 0.58 0.57 0.60 0.65 0.64 0.63 0.65 0.72 0.81 0.80 0.75 0.78 0.85 0.96 1.04 1.14 1.34 1.44 1.59 1.77 1.90 1.93 1.94 1.98 2.03
1.38 1.91 1.70 1.18 1.00 0.98 1.13 1.02 1.10 1.59 1.98 1.57 1.26 0.87 0.55 0.44 0.43 0.48 0.54 0.57 0.58 0.61 0.67 0.66 0.66 0.68 0.72 0.80 0.85 0.78 0.78 0.81 0.87 1.00 1.03 1.17 1.31 1.40 1.49 1.62 1.73 1.78 1.83 1.91
1.69 1.92 1.54 1.28 1.18 1.19 1.12 0.90 1.04 1.89 2.44 1.48 0.88 0.61 0.45 0.43 0.50 0.52 0.53 0.57 0.61 0.63 0.67 0.69 0.75 0.76 0.78 0.80 0.86 0.81 0.80 0.80 0.80 0.92 1.00 1.02 1.19 1.30 1.36 1.42 1.52 1.58 1.61 1.70
1.41 1.74 1.10 0.73 0.60 0.78 0.84 0.82 0.96 1.42 1.50 1.44 0.87 0.57 0.54 0.54 0.62 0.61 0.58 0.55 0.56 0.57 0.60 0.64 0.69 0.75 0.79 0.80 0.87 0.87 0.85 0.84 0.80 0.86 0.96 1.00 1.06 1.14 1.26 1.37 1.45 1.54 1.56 1.59
1.16 1.49 1.13 0.81 0.51 0.60 0.69 0.67 0.72 0.86 0.95 0.99 0.74 0.70 0.62 0.56 0.52 0.51 0.50 0.49 0.53 0.56 0.59 0.60 0.59 0.66 0.70 0.79 0.88 0.94 0.93 0.90 0.86 0.84 0.89 0.96 1.04 1.08 1.13 1.23 1.35 1.44 1.55 1.60
1.09 1.36 1.52 1.05 0.57 0.74 0.91 0.80 0.79 0.81 0.83 0.86 0.91 0.83 0.67 0.60 0.56 0.55 0.53 0.49 0.51 0.51 0.52 0.53 0.55 0.61 0.65 0.72 0.82 0.91 0.95 0.92 0.90 0.88 0.87 0.92 1.00 1.10 1.15 1.17 1.26 1.42 1.54 1.70
0.81 1.21 1.77 1.32 0.87 1.09 0.87 0.65 0.67 0.72 0.76 0.80 0.79 0.70 0.64 0.61 0.60 0.59 0.54 0.49 0.47 0.47 0.47 0.48 0.50 0.52 0.54 0.59 0.69 0.82 0.87 0.90 0.91 0.91 0.94 0.96 0.99 1.11 1.22 1.25 1.30 1.42 1.53 1.68
0.48 1.05 1.77 1.56 1.13 0.74 0.49 0.46 0.63 0.73 0.77 0.75 0.62 0.52 0.49 0.49 0.50 0.52 0.48 0.46 0.49 0.50 0.53 0.52 0.51 0.53 0.52 0.55 0.64 0.76 0.83 0.85 0.88 0.92 0.97 1.01 1.05 1.17 1.29 1.31 1.34 1.41 1.49 1.57
0.44 0.88 1.72 1.62 1.35 0.76 0.51 0.32 0.37 0.59 0.85 0.62 0.55 0.54 0.53 0.53 0.63 0.56 0.47 0.45 0.47 0.46 0.48 0.53 0.55 0.53 0.55 0.59 0.63 0.74 0.84 0.94 0.99 1.02 1.06 1.11 1.19 1.32 1.39 1.39 1.38 1.37 1.39 1.41
0.65 1.17 1.54 1.32 1.26 0.70 0.48 0.30 0.31 0.81 0.97 0.54 0.52 0.56 0.59 0.65 0.68 0.58 0.45 0.42 0.46 0.48 0.48 0.50 0.54 0.57 0.61 0.65 0.66 0.70 0.78 0.96 1.06 1.11 1.13 1.15 1.23 1.31 1.38 1.36 1.31 1.30 1.27 1.26
0.60 0.86 0.96 1.04 1.34 0.96 0.49 0.39 0.72 0.94 0.61 0.52 0.52 0.56 0.59 0.58 0.49 0.43 0.43 0.42 0.41 0.43 0.45 0.51 0.58 0.61 0.61 0.68 0.75 0.76 0.81 0.91 0.98 1.04 1.05 1.06 1.09 1.15 1.24 1.29 1.25 1.21 1.22 1.21
0.64 0.83 0.90 0.95 1.03 0.87 0.67 0.73 0.78 0.66 0.60 0.52 0.52 0.51 0.51 0.50 0.47 0.41 0.39 0.39 0.41 0.44 0.46 0.52 0.62 0.67 0.68 0.70 0.76 0.82 0.80 0.80 0.86 0.93 0.98 0.97 0.94 0.97 1.04 1.12 1.17 1.19 1.21 1.21
0.59 0.52 0.70 0.82 0.78 0.67 0.63 0.56 0.52 0.52 0.56 0.51 0.47 0.47 0.49 0.51 0.47 0.43 0.41 0.41 0.39 0.40 0.45 0.52 0.58 0.63 0.66 0.66 0.69 0.73 0.69 0.68 0.72 0.78 0.86 0.89 0.90 0.90 0.91 0.95 1.05 1.13 1.19 1.20
0.63 0.58 0.65 0.71 0.62 0.51 0.49 0.48 0.49 0.46 0.41 0.38 0.37 0.37 0.43 0.46 0.44 0.43 0.44 0.43 0.43 0.44 0.47 0.52 0.59 0.64 0.66 0.63 0.64 0.64 0.64 0.64 0.68 0.70 0.74 0.78 0.84 0.90 0.93 0.94 1.03 1.14 1.20 1.32
0.58 0.65 0.76 0.79 0.61 0.63 0.61 0.51 0.46 0.43 0.42 0.40 0.37 0.35 0.34 0.38 0.42 0.39 0.41 0.41 0.43 0.48 0.49 0.52 0.54 0.60 0.67 0.66 0.63 0.62 0.62 0.64 0.71 0.74 0.74 0.77 0.85 0.89 0.91 0.93 0.99 1.09 1.15 1.22